Home   Weather   Colombia   Past weeks
Flag for Mexico

Past Weather in Colombia, Nuevo León, Mexico — Yesterday and Last 2 Weeks

Now
79 °F

Clear.


Feels Like: 82 °F
Forecast: 94 / 75 °F
Wind: 10 mph from Southeast

Location: Laredo International Airport

Current Time: Oct 20, 2019 at 4:17:42 am

Latest Report: Oct 20, 2019 at 2:56 am


Visibility: 10 mi

Pressure: 29.74 "Hg

Humidity: 82%

Dew Point: 73 °F

Location of ColombiaLocation

Past Weather in Colombia — Graph

°F

Colombia Temperature Yesterday

Maximum temperature yesterday: 93 °F (at 4:56 pm)
Minimum temperature yesterday: 72 °F (at 4:56 am)
Average temperature yesterday: 81 °F

High & Low Weather Summary for the Past Weeks

 TemperatureHumidityPressure
High100 °F (Oct 10, 3:56 pm)94% (Oct 5, 7:56 am)30.27 "Hg (Oct 5, 7:56 am)
Low56 °F (Oct 11, 6:56 pm)23% (Oct 12, 5:56 pm)29.66 "Hg (Oct 18, 6:56 pm)
Average78 °F62%29.93 "Hg
* Reported Oct 5 2:56 am — Oct 20 2:56 am, Colombia. Weather by CustomWeather, © 2019

Note: Actual official high and low records may vary slightly from our data, if they occured in-between our weather recording intervals... More about our weather records

Advertising

Colombia Weather History for the Previous 24 Hours

Scroll right to see more
 ConditionsComfort  
Time TempWeatherWind HumidityBarometerVisibility
2:56 am
Sun, Oct 20
79 °FClear.10 mph82%29.74 "Hg10 mi
1:56 am79 °FClear.9 mph82%29.74 "Hg10 mi
12:56 am81 °FClear.10 mph77%29.75 "Hg10 mi
11:56 pm
Sat, Oct 19
81 °FClear.6 mph79%29.75 "Hg10 mi
10:56 pm83 °FClear.7 mph68%29.75 "Hg10 mi
9:56 pm84 °FClear.7 mph57%29.74 "Hg10 mi
8:56 pm85 °FClear.8 mph55%29.72 "Hg10 mi
7:56 pm87 °FClear.7 mph53%29.70 "Hg10 mi
6:56 pm90 °FSunny.No wind47%29.69 "Hg10 mi
5:56 pm93 °FSunny.7 mph42%29.69 "Hg10 mi
4:56 pm93 °FSunny.8 mph41%29.69 "Hg10 mi
3:56 pm92 °FSunny.5 mph44%29.70 "Hg10 mi
2:56 pm90 °FSunny.No wind48%29.70 "Hg10 mi
1:56 pm88 °FSunny.5 mph55%29.74 "Hg10 mi
12:56 pm86 °FSunny.5 mph59%29.77 "Hg10 mi
11:56 am84 °FPassing clouds.5 mph65%29.78 "Hg10 mi
10:56 am80 °FPassing clouds.6 mph71%29.78 "Hg10 mi
9:56 am78 °FPassing clouds.3 mph79%29.77 "Hg10 mi
9:26 am75 °FPassing clouds.No wind89%29.78 "Hg10 mi
8:56 am75 °FSunny.7 mph88%29.75 "Hg10 mi
7:56 am73 °FPassing clouds.7 mph90%29.73 "Hg10 mi
6:56 am73 °FClear.6 mph90%29.71 "Hg10 mi
5:56 am73 °FClear.5 mph90%29.70 "Hg10 mi
4:56 am72 °FClear.5 mph91%29.69 "Hg10 mi
Weather by CustomWeather, © 2019

See weather overview